Погода в Иванькове

Россия / Ивановская область     57°03′35″N   40°26′26″E
темп.,
°C
ветер,
м/с
пор.,
м/с
влажн.,
%
обл.,
%
осадки,
мм/ч
давл.,
гПа
погр.,
м
5 марта, пт
пт500:00−10сз23940 0.0 100128
03:00−11зсз23940 0.0 100329
06:00−12зсз239519 0.0 100344
09:00−9з369311 0.0 1004233
12:00−5з369193 0.4 1005564
15:00−4зсз479096 1.3 1007672
18:00−8сз4108788 0.6 1009428
21:00−13сз269044 0.6 101293
6 марта, сб
сб600:00−15з23880 0.0 101321
03:00−15зюз36940 0.0 1015106
06:00−13з269684 0.1 1014171
09:00−12сз359280 0.1 1015260
12:00−9сз24810 0.0 1016624
15:00−8зсз358134 0.0 1014857
18:00−11зюз239192 0.0 101423
21:00−13юз239347 0.0 101340
7 марта, вс
вс700:00−14ююз38930 0.0 1011155
03:00−12ююз410935 0.0 1008263
06:00−10ююз6139191 0.1 1003546
09:00−8ююз7149395 0.9 999733
12:00−5ююз71392100 1.6 9941059
15:00−4ю61293100 3.6 991972
18:00−5зюз61194100 2.4 9901016
21:00−8з6147992 3.1 992827
8 марта, пн
пн800:00−11зюз4118855 0.0 992275
03:00−12юз229765 0.1 99221
06:00−11с239499 0.3 99275
09:00−11сз3689100 0.4 992235
12:00−9зсз479062 0.0 994518
15:00−7зсз488881 0.1 996710
18:00−8ссз51092100 0.4 999769
21:00−10ссз51092100 0.5 1003605
9 марта, вт
вт900:00−13сз41093100 0.1 1006467
03:00−15сз3995100 0.2 1008383
06:00−15ссз3895100 0.1 1010472
09:00−15ссз4791100 0.3 1012508
12:00−13сз3589100 0.1 1013531
15:00−13сз4688100 0.1 1014554
18:00−17сз2595100 0.0 1015120
21:00−21сз249886 0.1 101789